Theta_e
349 347 350 353 353 353 354 354 355 355 356 358 358 358 358 358 358 358 357 356 356 356 357 356 355 355 354 354 353 355 356 357 356 355 353 352 352 351 349 348 348 347 347 346 346 346 345 345 344 343 343 344 346 347 346 346 347 345 343 343 343 343 343 343 344 344 344 343 342 341 340 336 334 339 339 337 337 338 340 340 340 340 340 341 343
350 350 351 353 354 354 354 355 356 356 356 357 358 358 358 358 357 357 356 356 356 356 356 355 355 354 353 353 353 353 355 354 354 353 351 352 353 352 350 349 348 347 346 346 347 346 345 343 341 341 343 344 344 344 344 343 344 345 344 344 344 344 344 344 345 345 344 343 342 341 341 337 336 340 338 336 338 339 340 340 336 335 336 338 339
355 353 352 353 355 355 355 355 356 356 357 357 357 358 358 358 357 356 356 356 357 356 356 355 355 354 353 354 354 354 353 353 352 352 351 352 353 353 352 349 346 346 346 346 347 346 344 342 341 343 344 343 342 341 340 340 343 344 345 345 345 345 345 344 344 344 343 343 342 342 343 341 341 341 337 336 337 337 340 338 331 327 328 332 333
356 354 354 354 354 355 355 355 356 356 356 357 357 358 357 357 357 356 356 355 356 357 357 356 355 355 356 355 354 353 352 352 351 352 352 351 353 353 354 351 347 345 346 345 344 342 342 342 342 343 342 342 344 343 343 344 343 344 344 345 346 345 346 344 343 343 343 343 343 343 342 341 344 342 338 336 335 337 338 331 324 325 324 325 326
356 356 356 354 354 355 356 356 357 356 356 356 357 357 356 356 355 355 355 355 356 357 357 358 357 357 356 356 354 353 352 352 352 350 350 351 352 351 351 352 349 345 344 343 343 343 343 343 343 343 342 344 345 344 343 343 342 342 342 343 343 343 344 343 342 341 343 345 343 343 343 342 344 342 339 339 335 336 337 327 323 326 325 325 325
356 356 356 355 354 355 356 357 357 356 356 356 356 356 355 353 353 354 354 356 356 357 359 360 359 357 358 356 355 353 353 352 352 349 347 348 350 348 347 350 347 343 343 344 344 344 343 343 343 342 342 343 343 341 341 340 339 339 340 339 340 340 341 340 341 341 343 344 344 342 342 342 342 341 341 341 336 335 333 327 326 326 324 324 324
356 356 356 355 354 356 357 357 357 356 355 356 355 355 354 352 352 352 353 356 358 359 361 362 361 360 359 357 356 354 353 351 351 348 343 343 346 344 345 346 344 342 343 342 342 342 342 342 341 341 341 340 340 340 340 340 339 338 338 338 339 340 341 341 341 342 340 340 342 341 341 340 341 340 339 339 339 337 331 327 327 324 322 322 321
357 357 358 357 355 357 357 357 357 356 356 356 355 355 353 352 352 352 353 356 360 361 363 363 363 362 360 357 356 355 352 350 350 346 341 340 341 341 342 343 342 342 341 341 341 342 341 340 340 340 339 339 340 339 340 339 338 338 337 337 338 339 341 342 340 340 339 338 339 340 341 340 340 339 337 337 339 339 335 331 328 323 318 319 320
357 358 359 357 356 357 358 358 358 357 356 356 355 355 354 354 353 353 355 358 361 363 364 363 363 360 358 357 356 355 353 351 349 343 338 338 339 340 340 341 341 340 339 340 341 340 340 340 339 338 337 338 339 337 337 338 337 337 336 336 337 337 339 340 338 338 339 339 339 339 340 340 340 339 337 336 336 337 338 335 331 327 322 319 318
357 357 358 358 357 358 359 359 358 358 358 356 356 356 355 355 356 356 356 358 361 362 363 362 360 358 357 357 354 351 352 350 345 340 338 339 339 339 339 341 340 339 339 340 340 340 340 340 338 335 334 337 337 335 335 336 336 336 337 337 336 336 337 337 337 338 339 338 338 339 339 338 339 338 335 335 335 335 335 333 332 331 330 325 318
357 357 358 357 358 358 358 359 359 359 359 358 358 357 357 357 357 357 357 357 360 360 359 357 357 357 357 356 350 345 348 346 341 338 339 340 339 339 339 341 341 339 338 338 339 340 340 339 336 332 333 336 336 334 334 334 335 335 336 336 335 335 336 336 337 338 337 336 335 336 338 338 338 336 335 336 336 335 334 333 332 331 330 327 320
357 357 358 358 359 359 359 359 359 360 360 360 359 359 358 358 357 357 357 357 360 359 356 355 355 356 357 355 346 340 342 341 338 338 339 339 338 337 339 342 341 339 337 336 337 340 340 338 335 332 333 335 335 334 334 334 334 334 333 334 335 335 335 335 336 336 336 334 331 332 335 336 336 336 336 337 335 333 333 332 330 330 330 326 321
357 358 358 359 359 359 359 359 359 360 360 360 360 359 359 358 357 358 358 359 358 357 355 355 355 355 355 353 344 338 339 337 336 337 337 337 335 335 338 341 341 338 337 335 337 340 339 336 335 331 332 333 333 332 333 332 332 332 333 334 335 335 335 335 335 336 336 334 331 330 332 334 335 334 334 333 331 329 328 329 329 329 329 327 323
357 358 359 360 360 359 359 360 359 359 360 360 360 359 359 359 358 358 358 358 357 357 357 356 355 354 354 349 342 339 338 336 336 335 335 333 332 334 338 341 341 338 336 335 337 339 338 335 334 331 330 331 331 331 331 331 331 332 333 333 334 334 335 335 335 335 335 334 332 331 332 334 334 333 332 331 329 327 324 326 328 327 326 325 324
356 358 359 360 359 358 359 359 359 359 359 359 359 360 359 358 358 358 358 358 357 357 357 356 355 354 352 346 341 339 337 337 336 336 334 332 333 336 338 340 340 337 336 335 337 338 336 334 333 331 332 332 332 332 332 332 332 333 334 334 334 335 335 335 335 334 334 335 334 332 332 332 333 332 331 330 329 325 320 321 325 329 330 327 324
357 358 359 361 360 358 359 359 359 359 359 359 359 359 359 359 358 358 358 357 357 357 357 356 355 354 349 343 341 339 337 336 337 336 334 332 332 336 338 339 338 336 336 336 336 337 335 333 332 333 334 333 333 334 334 334 334 334 334 334 334 335 335 335 335 335 335 334 334 333 332 331 333 332 331 330 329 324 318 318 322 326 330 330 327
357 359 360 361 361 359 359 359 359 360 359 360 360 359 359 358 357 358 358 357 356 357 357 355 354 351 345 342 340 339 336 335 336 335 334 333 333 335 337 338 337 336 335 335 335 335 333 331 331 334 335 334 334 335 335 334 334 334 334 333 333 333 334 334 334 336 335 334 335 334 333 332 333 333 332 331 329 323 318 317 319 321 325 329 331
357 359 359 360 361 359 359 359 359 360 359 360 360 359 360 358 357 358 358 356 355 355 356 353 351 347 343 342 341 338 336 336 336 335 334 333 334 336 337 337 337 335 334 334 333 333 333 332 332 335 336 335 335 335 335 334 333 333 333 333 332 331 331 331 332 334 334 334 334 335 335 334 334 333 332 330 329 324 319 317 318 320 321 324 327
357 358 359 361 360 359 359 359 359 360 359 360 360 359 359 359 358 358 356 355 354 355 354 351 350 348 344 344 341 338 337 337 336 335 333 333 333 335 336 335 335 334 333 332 333 333 334 334 334 335 336 336 335 335 335 334 333 333 332 331 331 330 330 331 331 333 334 334 334 334 334 335 334 333 331 331 329 325 321 318 318 320 320 321 323
356 357 358 359 359 359 359 359 360 359 359 360 360 360 360 359 358 357 356 355 354 353 351 350 349 347 345 344 341 338 338 337 336 335 333 334 333 334 334 332 333 332 332 333 336 336 335 335 336 337 336 336 335 334 334 334 333 332 331 330 330 330 331 331 332 334 335 334 334 334 334 335 335 332 330 331 329 325 321 318 318 319 319 320 322
355 356 357 357 358 359 359 359 360 360 359 360 359 359 359 359 358 357 356 354 353 352 350 348 348 346 345 344 340 337 338 337 336 335 334 334 333 334 333 331 331 332 333 335 337 338 337 337 336 337 335 334 333 333 333 333 332 330 330 329 330 330 331 332 334 335 335 334 334 335 334 335 335 333 332 331 330 327 324 321 320 319 319 320 321
354 355 355 356 357 358 359 360 359 359 360 360 359 360 359 358 357 356 356 354 353 352 350 349 346 345 345 344 340 337 337 337 336 336 334 334 334 334 334 333 333 333 334 335 336 337 337 337 336 335 334 332 332 333 332 332 330 329 329 329 329 331 332 333 334 334 334 334 335 335 335 335 335 334 332 332 331 329 327 324 322 321 320 320 320
351 353 354 356 355 356 358 359 359 359 359 359 359 359 358 358 357 356 355 354 352 351 350 349 346 345 345 342 339 338 338 338 336 335 335 335 334 335 336 336 335 334 334 334 335 336 336 335 335 333 331 331 332 333 331 330 329 329 330 330 329 330 330 330 331 333 334 334 334 334 333 334 335 335 333 333 332 331 329 327 325 323 321 321 320
351 351 354 355 354 357 358 359 359 359 359 359 358 359 358 358 357 356 355 354 352 350 349 347 346 344 344 341 339 339 338 338 337 336 337 336 336 337 337 337 336 333 332 333 334 335 334 334 334 332 331 331 333 332 331 330 330 330 330 329 329 327 327 329 330 332 333 332 333 333 332 333 334 335 334 333 332 332 330 328 327 325 323 322 321
352 351 354 355 356 359 358 358 359 359 359 358 358 358 358 357 357 356 355 353 352 350 348 347 346 344 342 340 338 339 339 338 338 337 337 337 337 337 337 337 337 333 332 332 333 335 335 336 335 334 332 332 331 330 330 331 331 330 329 328 327 326 327 329 331 331 331 331 331 331 330 332 333 333 334 333 333 332 331 329 328 327 325 325 323
353 353 353 354 357 360 359 358 359 359 359 358 357 358 357 357 357 355 354 353 351 349 348 346 345 343 342 340 339 339 339 339 339 338 338 339 338 337 337 337 336 333 332 332 334 335 337 337 337 335 332 331 331 331 331 332 330 329 328 327 327 327 327 329 330 330 329 329 330 330 329 330 330 331 330 330 331 332 331 330 329 329 328 326 325
353 352 352 354 356 359 360 358 358 359 358 358 358 357 357 357 356 355 354 352 350 349 347 346 345 343 342 340 340 340 339 340 340 338 338 339 339 338 336 335 334 333 333 334 336 337 338 337 334 332 331 331 331 332 332 332 331 328 327 327 326 327 327 328 330 330 328 327 328 328 328 327 327 327 327 328 329 331 331 330 329 329 329 328 326
353 351 352 354 355 357 359 356 356 357 357 358 357 356 357 356 356 354 353 352 350 349 347 346 345 343 343 342 340 340 340 340 340 337 336 339 340 338 335 333 332 333 334 336 338 338 336 334 332 330 330 331 332 332 333 332 330 328 327 327 327 327 328 328 329 330 328 327 326 326 327 327 327 327 328 328 329 331 331 330 329 329 329 328 327
352 351 353 354 352 355 357 355 355 356 356 357 356 356 356 355 355 354 352 351 349 348 347 346 346 344 343 342 341 341 341 341 340 337 337 340 340 339 336 333 333 334 336 338 339 337 334 332 331 332 331 332 333 334 334 333 331 328 327 326 326 327 329 328 328 329 329 328 328 328 328 329 329 329 329 329 329 329 330 330 329 329 329 328 327
352 351 352 353 352 354 355 356 355 353 355 356 355 356 355 354 354 353 352 351 349 348 347 346 346 345 343 342 342 342 342 342 340 338 339 341 340 339 338 336 335 336 337 338 339 337 335 333 334 333 332 333 334 334 335 334 332 328 326 325 327 328 328 327 327 327 328 328 328 327 326 326 327 329 329 329 328 327 328 329 329 330 329 329 328
353 353 353 353 353 353 355 357 354 352 355 355 355 355 354 354 354 352 352 351 349 348 347 346 346 345 344 343 342 342 343 342 341 340 341 341 340 340 338 336 337 338 337 339 340 338 335 335 334 334 333 333 334 334 335 335 333 330 327 326 326 327 328 327 327 326 326 327 326 324 324 324 325 326 327 328 327 326 327 328 328 328 328 329 328
357 357 357 356 356 356 356 356 353 352 354 354 354 355 353 353 353 352 352 350 348 348 347 346 346 344 344 343 342 342 342 341 341 341 341 341 340 339 337 335 337 338 338 339 340 338 336 335 334 334 333 334 334 334 334 335 333 331 328 327 326 327 328 327 326 326 326 326 326 325 325 325 325 325 328 328 328 326 326 326 327 327 327 328 328
360 360 359 357 356 355 353 351 351 352 354 354 354 354 353 353 352 351 351 350 348 348 347 346 346 344 343 342 341 341 340 337 336 338 341 342 340 338 337 336 337 337 338 339 339 338 336 335 334 333 334 334 334 334 335 336 335 332 330 328 328 327 327 326 325 326 327 327 326 326 327 326 326 327 327 328 327 326 326 326 326 326 326 326 327
363 362 360 358 356 351 346 348 350 352 353 354 353 354 353 352 351 350 350 348 348 347 346 346 345 343 341 342 340 339 337 332 332 336 340 342 340 338 336 336 336 336 337 339 339 338 337 335 334 333 333 334 334 334 334 335 335 334 331 329 328 328 326 326 326 327 327 327 327 327 327 327 327 327 327 326 326 326 326 326 325 325 325 325 326
364 367 365 361 358 351 344 345 349 350 352 353 353 354 353 350 349 348 347 347 347 346 346 345 344 342 340 341 341 339 335 331 330 334 339 341 341 339 336 335 335 335 336 337 338 337 336 334 334 334 333 333 334 334 334 333 333 334 331 329 329 327 326 326 326 327 327 327 326 327 327 326 325 325 325 324 325 326 327 327 326 326 325 325 325
371 380 376 362 354 350 345 345 347 348 350 352 352 353 353 350 347 346 345 345 345 345 345 344 344 342 340 341 341 338 334 332 331 333 338 341 341 340 338 336 336 335 336 337 337 336 336 335 334 334 334 335 334 333 333 332 332 333 331 329 328 327 326 326 327 327 326 326 326 325 323 322 321 321 321 323 326 327 327 328 327 326 325 324 324
371 368 364 353 347 349 348 347 348 347 348 351 352 351 351 348 346 345 344 343 343 343 344 344 343 342 341 341 340 336 333 333 333 333 337 340 340 340 339 337 337 338 338 338 337 336 335 335 335 335 335 335 334 331 331 332 333 333 331 329 327 326 326 326 326 326 326 325 324 322 320 319 319 320 322 324 326 327 327 326 325 325 324 324 324
351 343 342 345 347 350 349 348 349 348 348 349 350 350 350 347 345 345 344 343 342 343 343 343 343 341 340 339 338 336 333 331 329 331 336 339 340 340 340 338 338 338 338 338 337 336 335 335 336 335 334 333 332 330 330 333 334 333 331 328 327 326 326 326 326 325 325 324 322 320 319 318 319 321 323 325 326 325 324 323 323 324 323 322 323
341 338 339 344 348 349 349 350 350 349 349 350 350 351 349 347 345 344 343 342 341 341 341 341 340 339 339 338 337 336 333 329 327 330 336 340 341 340 339 338 338 338 338 337 337 336 336 336 334 333 332 331 331 331 331 331 331 331 330 328 326 326 326 325 325 324 323 323 320 319 319 319 320 323 325 325 325 323 323 323 323 322 321 321 322
349 348 344 346 350 350 350 351 350 350 351 350 349 349 347 346 345 343 342 342 341 341 341 338 337 338 337 336 335 334 332 329 328 332 337 340 340 338 336 335 336 338 337 337 337 335 334 332 330 329 328 328 331 332 331 329 329 328 328 327 325 326 325 324 324 324 323 321 319 318 319 320 322 323 324 323 323 322 322 322 322 321 319 319 319
350 351 350 349 350 349 349 351 350 350 351 350 349 348 345 345 344 341 340 341 340 339 338 336 336 336 336 336 335 331 330 328 327 332 338 340 340 339 337 335 335 337 337 336 335 332 331 329 327 327 327 329 331 331 329 328 327 326 326 325 325 325 324 324 323 322 321 319 318 318 320 321 322 322 322 322 322 321 321 320 319 318 317 317 317
348 349 350 348 348 348 348 349 349 349 350 349 348 346 344 342 341 339 339 339 337 336 335 335 336 336 335 336 334 331 330 329 331 335 338 339 338 338 337 336 335 336 336 333 330 329 330 328 327 327 328 331 331 330 328 327 326 325 324 324 323 323 323 323 323 320 319 318 318 319 320 321 321 322 321 321 321 320 319 318 317 316 316 315 316
348 346 347 345 345 345 344 345 346 346 346 345 344 344 343 340 338 338 338 337 336 335 334 335 336 336 336 336 334 333 333 334 335 336 337 337 337 336 335 336 336 334 332 329 328 328 329 329 329 329 331 331 330 328 327 326 325 324 324 323 323 323 323 322 320 319 318 318 318 319 319 320 320 321 320 320 319 318 317 315 314 314 314 314 314
349 348 346 343 341 342 341 342 343 343 343 343 343 342 340 338 337 337 338 337 335 334 334 335 336 337 337 336 335 335 336 336 336 337 337 336 336 335 335 336 334 331 329 328 327 328 329 330 331 331 331 330 328 327 325 324 323 323 323 323 323 323 322 320 318 318 318 318 318 318 318 319 319 319 319 318 316 315 314 313 313 312 312 312 312
349 347 345 341 340 341 341 340 341 342 342 342 343 341 339 337 336 337 337 337 336 335 336 335 335 335 336 336 335 335 336 336 337 337 336 335 334 334 335 334 331 329 328 327 327 329 331 332 331 330 328 327 325 324 323 322 322 322 323 322 322 321 319 318 317 318 318 318 317 318 318 319 319 318 317 315 314 313 312 312 311 311 310 310 309
346 346 344 341 340 339 339 339 339 340 341 341 341 341 339 337 337 337 337 336 336 337 336 336 336 336 335 335 336 335 334 334 335 336 335 334 334 334 333 331 329 328 327 327 328 331 332 331 329 327 325 324 323 322 322 321 322 322 322 321 320 319 318 317 317 317 317 317 317 318 319 319 318 316 314 313 312 311 311 310 310 309 308 308 307
341 344 342 339 339 338 338 338 337 337 338 339 339 338 337 336 336 336 336 335 335 335 335 335 335 334 333 333 332 331 331 332 334 335 333 332 332 333 332 330 328 327 327 328 331 332 330 328 325 323 322 322 322 321 321 321 321 322 321 320 319 318 317 317 316 316 316 317 318 318 317 316 315 313 312 311 311 310 309 308 307 307 306 305 305
340 341 340 338 338 337 337 337 335 335 335 335 334 333 331 329 329 329 330 330 330 330 328 328 328 329 331 330 328 327 329 330 332 332 330 330 330 329 329 328 327 327 328 330 331 331 328 325 323 322 322 322 322 322 321 321 321 322 321 319 318 317 316 315 315 315 316 317 317 316 314 314 313 312 311 310 309 307 306 305 304 304 304 303 303
340 340 339 339 337 336 337 336 334 333 331 331 330 329 327 326 325 324 325 326 326 327 326 326 327 328 329 326 323 324 325 326 328 329 328 327 327 327 327 327 327 328 329 329 329 328 325 323 322 321 321 321 321 321 321 321 321 321 320 318 317 316 315 314 314 314 316 317 316 314 313 312 311 310 309 308 305 304 303 302 302 302 303 302 302
339 338 338 337 336 336 336 335 333 331 328 326 326 326 326 326 325 324 324 324 325 326 327 326 326 325 324 323 323 324 325 325 326 326 325 325 326 326 328 328 329 329 329 327 326 325 323 322 321 320 321 321 321 321 322 321 321 320 318 316 315 314 314 314 313 314 316 317 315 313 311 311 310 309 307 304 302 302 301 300 300 300 301 301 301
337 336 334 333 334 336 336 334 331 327 324 324 325 325 325 325 325 325 325 324 324 325 325 325 324 324 324 324 324 325 324 324 324 324 324 325 325 325 326 327 327 327 326 324 323 322 321 321 320 320 320 320 320 321 322 321 319 318 316 315 314 313 313 313 313 315 315 315 313 312 310 309 308 306 304 302 302 301 300 300 299 299 299 300 300
Wind_Speed
16 21 24 27 28 29 29 29 30 30 30 31 32 31 32 31 31 31 29 28 28 27 26 25 24 21 19 18 17 16 14 13 13 13 13 11 10 12 12 11 12 12 10 9 10 8 6 4 3 3 5 6 7 9 10 12 13 13 12 13 15 15 15 15 12 11 11 12 12 15 14 10 9 7 8 14 17 13 12 14 17 17 16 16 15
12 16 20 25 26 26 28 29 30 29 29 31 32 31 31 30 30 30 29 28 28 27 27 26 25 23 20 19 19 18 17 16 15 13 12 10 9 10 9 7 9 10 10 11 11 9 6 3 3 4 5 5 6 6 7 9 11 11 12 14 16 15 16 16 13 10 8 7 8 10 10 10 8 5 9 16 15 13 12 14 16 16 16 16 16
10 12 17 22 24 25 27 28 30 31 30 31 32 31 30 30 30 29 28 28 28 27 26 25 24 22 20 18 16 16 15 14 12 9 8 8 8 7 7 7 8 11 12 11 9 7 5 4 4 5 4 4 4 4 4 5 6 7 9 13 15 15 16 15 13 10 9 8 7 5 4 7 5 4 11 15 12 12 11 13 15 16 16 15 15
12 13 14 19 23 24 26 27 28 30 30 30 31 31 31 31 30 29 28 28 28 27 26 23 21 21 20 17 14 12 11 9 8 7 6 6 7 7 8 9 10 11 10 9 8 6 5 5 5 5 3 4 4 4 4 4 4 5 7 9 11 13 14 12 10 7 8 7 3 1 2 4 2 4 11 12 10 10 9 14 16 16 17 15 15
14 14 14 16 21 24 27 28 28 28 29 31 32 32 32 32 31 30 29 29 28 27 25 23 22 21 19 16 13 11 9 8 7 8 7 7 8 8 9 10 11 10 10 9 8 7 6 6 5 4 3 3 3 3 3 3 3 3 4 4 4 8 9 8 7 6 5 5 3 1 1 2 2 4 7 6 8 9 8 14 17 18 18 17 18
13 14 14 15 19 23 26 27 27 28 30 32 34 34 33 32 31 31 30 30 29 27 25 25 24 22 20 18 15 12 11 11 10 10 10 10 10 10 10 12 12 11 11 10 10 8 7 7 5 4 3 2 2 2 1 2 1 1 3 3 2 3 5 5 5 6 5 3 3 2 1 1 3 4 3 3 7 6 6 14 17 19 20 18 20
12 13 14 15 19 21 23 26 28 30 32 33 33 34 34 32 31 31 31 31 29 27 26 26 25 24 23 21 19 17 14 13 12 11 11 12 12 12 12 13 12 11 11 11 10 9 8 7 6 5 3 2 2 3 3 3 2 1 2 3 2 2 4 5 6 6 4 2 2 2 2 1 1 1 0 1 4 4 7 14 17 19 19 19 22
12 13 14 16 19 22 24 28 30 32 32 32 32 34 34 32 31 31 31 31 29 28 28 27 26 25 23 21 20 18 15 14 12 11 12 13 14 13 13 13 12 11 10 10 9 9 8 8 6 4 3 3 3 3 3 3 2 2 1 2 2 2 3 5 6 5 2 3 4 3 4 3 2 2 2 1 1 3 7 11 17 21 20 18 21
14 15 16 17 21 26 29 30 32 33 32 32 33 34 34 32 31 31 31 30 28 27 27 26 26 24 22 20 19 17 14 13 13 14 14 15 15 15 14 14 12 10 9 9 9 8 8 7 5 3 2 3 3 2 2 2 2 1 1 2 2 2 2 3 5 4 2 3 5 5 5 4 3 4 3 2 0 2 3 5 12 19 19 18 21
14 15 16 19 25 30 30 31 31 32 33 34 34 33 33 32 31 31 31 30 28 27 27 26 25 24 21 19 17 15 14 15 16 17 17 16 16 16 15 14 12 9 8 9 9 8 7 7 4 2 3 3 3 2 2 2 1 1 2 3 3 3 3 3 4 3 3 4 4 4 4 4 3 3 2 1 0 1 2 3 8 11 12 16 20
13 14 14 19 25 27 28 29 30 31 32 33 33 33 33 32 32 32 31 30 28 27 26 26 25 24 21 19 16 15 16 18 20 20 19 18 17 15 15 14 12 10 9 8 8 7 7 6 3 2 3 3 2 2 2 2 2 2 2 3 3 4 4 3 4 3 2 3 3 3 3 3 1 0 1 1 1 2 2 3 6 8 9 13 18
13 13 13 15 17 20 24 27 29 30 30 31 32 33 33 33 32 32 31 30 29 29 28 27 26 24 21 19 18 17 19 21 22 21 21 20 17 14 14 14 11 10 9 8 7 8 7 6 3 2 2 2 1 1 1 2 2 2 2 3 4 5 4 4 4 3 1 1 2 2 2 1 0 0 1 1 1 2 2 2 5 6 6 10 17
14 13 12 13 13 16 22 25 27 29 29 31 32 32 33 33 33 33 32 31 31 30 30 29 27 25 22 21 21 20 20 22 22 22 21 19 16 14 13 14 13 11 10 8 8 9 8 6 4 3 2 1 2 1 1 2 2 3 3 4 5 6 6 5 5 4 3 3 3 3 3 3 2 2 2 2 1 2 1 1 3 4 4 8 14
13 13 13 13 13 17 22 25 27 28 31 33 34 34 34 33 33 34 33 34 34 33 32 31 29 27 25 23 23 22 22 22 22 21 19 17 15 13 13 14 14 12 10 9 9 9 8 6 5 5 4 3 4 3 2 2 2 3 4 6 6 7 7 7 6 6 6 6 6 6 6 5 4 4 5 5 4 4 3 2 2 3 5 8 8
13 13 14 14 16 20 24 26 28 30 33 35 35 35 34 34 35 36 35 36 35 35 34 33 31 29 27 26 25 24 23 22 21 19 18 16 15 14 14 15 15 13 11 11 11 10 8 7 7 7 5 4 5 5 4 3 4 5 6 7 8 8 9 10 9 9 8 9 9 9 8 8 7 7 8 8 7 7 6 4 3 1 3 5 5
13 14 14 15 17 21 24 25 28 31 32 34 34 36 36 36 37 38 38 38 38 38 37 35 33 31 30 29 27 24 23 22 21 19 18 18 17 16 16 16 15 13 13 13 12 11 9 9 9 8 7 6 6 6 6 5 6 7 8 8 8 8 9 10 11 12 12 11 12 12 12 11 10 10 11 10 9 8 7 6 4 3 1 2 3
14 14 15 15 16 21 24 27 28 29 30 33 36 39 41 40 40 40 40 39 38 38 37 35 35 34 33 31 28 25 24 22 21 20 19 18 17 16 16 16 15 14 14 14 13 12 11 10 10 10 9 8 7 8 8 7 8 9 9 9 8 8 8 9 11 12 13 13 14 15 15 14 13 13 13 12 10 9 9 7 6 5 3 2 2
15 15 14 14 15 20 25 28 30 32 34 37 40 42 42 41 42 42 40 39 39 39 38 37 36 35 34 32 28 26 24 22 22 21 20 19 18 17 17 16 15 14 14 14 13 12 12 11 11 11 11 9 8 9 9 9 10 10 10 10 9 9 9 9 10 12 13 14 15 17 17 18 16 15 16 15 13 12 12 10 7 6 6 5 5
13 13 12 12 14 20 25 28 31 34 36 38 40 39 39 39 40 40 40 41 42 41 39 38 37 37 35 32 28 26 25 23 22 21 20 19 19 19 18 17 15 14 14 14 14 13 13 13 12 11 10 10 10 10 10 10 11 11 11 11 10 9 10 11 12 13 14 14 16 17 19 21 19 16 16 16 15 15 14 12 10 9 9 9 9
12 12 13 13 15 22 28 31 32 35 37 38 37 36 37 39 39 38 38 38 39 38 38 38 40 39 36 32 29 27 25 24 23 21 20 20 20 19 18 16 15 14 15 16 15 15 14 13 12 11 11 11 11 11 11 11 11 12 11 11 10 10 12 14 14 15 15 15 16 17 20 22 20 17 18 18 16 15 15 14 12 12 11 11 12
13 13 14 15 16 22 29 32 33 35 36 35 35 36 37 37 36 37 37 36 36 37 37 39 40 39 37 35 31 29 27 25 23 21 19 19 19 19 18 17 16 16 17 17 17 16 15 14 12 12 11 11 11 11 11 11 12 12 11 11 12 13 15 15 15 15 15 16 17 18 20 21 20 19 20 20 19 18 17 17 15 15 15 14 14
14 14 15 14 14 20 27 30 30 30 30 32 33 33 34 34 36 37 37 37 38 38 39 39 38 38 38 36 32 30 29 26 24 21 20 20 20 20 20 19 18 17 18 18 18 17 16 14 13 12 11 11 11 11 11 11 12 12 12 13 13 14 14 15 15 16 17 17 18 18 19 19 20 21 21 22 22 21 19 19 20 20 21 19 17
15 14 13 12 14 21 25 27 28 29 30 31 32 33 35 37 38 37 37 39 39 38 38 38 37 37 38 36 33 32 31 28 26 24 22 21 22 22 22 22 20 18 18 19 18 17 16 14 12 12 12 12 12 12 12 12 13 13 14 13 12 12 13 14 15 16 17 17 17 17 17 18 19 22 22 22 23 23 22 22 24 24 24 23 20
13 13 12 12 14 17 19 21 25 28 30 32 33 35 35 35 35 36 38 40 38 36 37 37 37 37 37 37 36 34 32 30 29 27 25 23 23 23 23 23 21 18 19 19 18 17 16 15 14 13 13 14 14 13 13 13 14 14 14 12 11 12 12 13 14 16 16 15 14 15 16 16 17 20 22 23 23 24 25 25 26 27 27 27 25
13 13 12 12 12 13 14 18 24 27 29 32 33 34 35 35 36 37 39 39 37 36 36 37 38 37 38 39 38 36 35 33 32 29 26 25 24 24 24 24 22 20 20 20 19 19 19 18 17 16 15 14 13 13 14 14 14 14 14 13 12 12 12 13 14 15 15 14 13 14 15 15 17 19 21 23 23 24 25 25 26 28 29 29 27
14 15 14 12 12 13 14 18 23 27 29 31 33 35 35 35 37 38 37 37 36 36 36 37 38 38 39 40 39 38 38 35 33 31 28 27 26 24 24 24 23 21 20 20 19 20 20 20 18 17 16 15 14 14 15 14 14 14 14 13 12 12 13 14 14 14 14 15 15 15 16 16 17 19 21 22 23 24 25 25 26 28 29 29 28
14 14 13 12 12 13 15 18 23 27 29 31 32 34 34 34 35 37 36 35 36 36 36 37 39 39 39 39 39 40 40 37 34 32 30 29 27 24 24 24 23 22 21 20 20 20 20 19 18 16 15 15 16 16 16 16 15 13 13 13 13 13 14 14 15 16 16 16 16 16 16 17 18 20 21 22 23 24 25 25 26 27 28 28 27
13 14 14 13 13 14 14 16 21 24 26 28 29 30 32 33 34 35 35 36 37 37 37 38 39 38 37 40 42 43 41 37 34 33 30 29 28 25 24 24 24 24 22 20 20 19 20 19 17 15 14 14 16 16 17 16 15 13 13 14 14 13 14 15 16 18 18 17 17 17 17 19 19 20 21 21 22 23 24 25 24 25 26 27 26
14 15 13 12 13 13 13 14 18 22 24 26 26 28 29 30 31 33 34 36 37 37 38 39 38 37 38 42 44 44 41 38 36 33 31 30 29 26 25 25 25 25 23 21 20 19 19 18 17 15 13 14 16 18 18 17 15 14 14 15 14 14 15 16 17 18 20 19 18 18 19 19 20 20 19 19 19 20 22 24 24 24 25 26 25
16 14 12 13 13 13 13 13 15 20 23 24 25 27 29 31 32 33 34 35 36 37 38 39 38 38 39 41 43 42 41 39 37 34 32 31 30 27 26 27 26 26 24 22 21 21 21 19 17 16 15 17 19 19 19 19 18 16 15 15 15 15 15 16 17 18 19 19 17 17 19 19 20 19 19 18 18 18 20 23 24 24 25 25 24
13 12 11 10 10 10 10 10 13 19 22 24 27 28 30 31 31 33 35 36 36 37 39 39 36 35 37 40 43 44 43 42 38 34 32 31 29 28 27 28 28 27 25 23 24 24 23 20 18 18 19 20 21 20 20 20 19 17 16 15 16 17 16 15 16 17 17 16 15 16 17 18 19 19 18 17 18 18 19 20 22 23 22 23 23
11 11 9 9 9 10 10 11 14 19 22 24 27 27 28 30 31 32 33 33 35 38 38 35 32 34 38 41 42 41 36 30 25 25 28 30 29 27 28 29 29 28 26 25 25 26 24 21 20 20 21 22 22 22 21 21 20 19 18 18 18 18 18 16 16 16 15 14 14 15 15 16 17 16 15 16 18 19 19 20 21 21 20 20 20
10 9 9 9 9 8 10 13 16 19 24 27 28 27 27 28 29 31 31 31 34 36 33 29 28 29 30 30 29 25 20 17 17 23 28 30 29 29 30 31 30 29 27 27 28 28 25 23 22 22 23 23 23 23 22 22 22 22 21 20 19 19 18 16 16 16 15 14 14 14 14 14 15 14 14 16 17 18 20 20 21 21 20 19 19
8 8 8 8 8 8 11 15 18 21 24 24 24 25 25 25 27 30 29 29 30 29 24 22 22 24 26 29 29 26 22 22 23 25 27 29 31 31 31 32 31 30 29 29 30 29 27 25 25 24 24 24 24 23 22 22 23 23 23 21 19 18 17 17 16 16 15 14 14 13 13 14 15 14 15 16 17 19 20 20 21 21 20 20 20
7 8 8 8 8 9 11 16 21 23 21 19 22 25 24 23 25 26 25 25 25 22 19 21 24 27 32 38 40 38 33 27 24 23 24 27 31 32 33 33 32 31 32 31 31 29 28 26 25 24 24 25 24 23 22 23 23 23 23 20 18 18 17 17 17 16 15 14 13 12 12 14 15 16 16 16 18 20 20 20 20 20 20 21 22
9 10 10 11 13 15 17 21 23 22 21 22 25 24 22 22 23 24 24 23 21 21 22 24 27 31 36 41 41 38 32 24 21 21 23 27 31 33 35 35 34 34 33 31 30 29 27 26 25 24 24 24 23 21 21 23 24 23 22 20 18 18 18 18 17 17 16 14 13 11 12 13 15 17 17 15 16 17 17 17 18 19 21 23 25
9 10 11 14 17 19 20 19 18 19 22 24 22 22 23 23 23 23 23 22 22 24 25 28 32 35 37 36 32 29 25 19 19 22 26 29 32 34 36 36 34 34 33 31 31 28 25 24 22 19 18 18 19 19 18 20 22 21 20 20 19 18 18 18 18 18 16 14 11 10 12 14 16 16 15 13 12 12 13 15 17 19 21 24 27
8 8 8 11 15 17 17 16 14 16 20 20 19 20 22 22 21 21 21 20 22 25 28 32 35 34 31 30 28 27 25 23 23 27 29 31 35 39 38 35 34 33 32 32 30 24 20 19 16 13 12 15 20 21 18 17 19 19 20 20 19 18 18 19 19 18 15 12 10 10 12 13 15 14 13 12 11 12 14 16 17 19 20 23 25
6 9 11 14 16 15 13 13 14 16 18 20 21 22 22 22 21 20 19 20 24 29 32 32 30 29 29 29 29 27 26 26 27 32 34 35 37 35 30 29 31 32 30 29 25 20 17 15 11 9 11 16 22 22 17 14 16 18 19 19 18 18 19 19 18 16 14 12 11 11 11 12 13 12 11 11 12 14 15 16 15 16 17 19 21
3 3 9 14 15 13 12 14 16 18 20 21 23 24 24 24 25 23 23 26 31 34 32 29 30 32 32 30 27 25 25 26 30 36 37 34 28 20 17 21 24 25 25 22 17 13 11 9 7 10 14 17 21 20 15 14 15 16 17 17 17 18 19 18 16 14 14 13 12 10 10 11 11 11 11 12 13 14 14 13 12 12 13 17 21
7 7 10 12 12 11 14 17 20 21 23 24 25 25 24 25 24 18 16 22 28 29 28 30 32 32 29 26 24 22 22 26 33 37 32 25 20 20 23 26 24 22 20 17 13 11 8 5 10 15 17 18 19 17 14 13 13 14 15 16 17 17 17 15 14 13 13 13 12 11 10 10 11 11 11 12 12 11 11 10 10 11 14 17 20
8 8 9 9 8 9 11 13 17 20 22 24 25 24 22 19 13 8 8 14 20 19 19 22 25 27 26 26 25 21 21 26 29 27 22 19 20 23 25 24 19 16 15 15 14 12 10 9 13 17 19 17 15 13 12 12 12 13 15 16 16 16 15 14 13 13 12 12 11 11 10 10 11 11 10 10 9 9 9 10 11 13 15 17 19
5 5 6 7 7 5 2 2 5 10 13 15 16 14 10 10 14 15 14 20 21 17 14 15 20 25 28 27 21 16 17 19 17 15 14 14 14 15 15 15 14 14 15 15 13 10 9 12 15 17 16 12 11 11 12 12 14 15 15 15 14 14 13 13 12 12 12 12 11 10 10 11 10 8 7 8 7 8 9 11 12 13 14 15 16
2 2 5 5 4 4 5 6 4 5 6 7 8 7 10 15 16 15 18 22 21 19 16 16 20 24 24 22 17 12 11 9 9 8 9 11 13 15 18 20 21 22 21 17 12 9 9 11 13 13 11 10 11 12 12 13 14 14 14 14 13 13 13 12 11 11 11 12 11 10 11 10 8 6 6 7 7 9 10 11 11 11 11 12 13
2 2 3 3 6 8 9 10 9 7 6 6 7 10 13 14 12 13 18 21 19 17 16 19 23 22 19 19 18 14 11 10 10 10 12 17 22 25 26 26 25 23 18 13 9 9 10 11 12 12 11 11 12 12 12 13 14 13 13 12 12 12 11 11 10 11 11 11 11 11 10 7 5 5 5 7 8 8 9 10 9 9 9 9 11
3 2 5 6 8 11 12 14 13 11 11 10 11 12 14 15 14 15 18 20 19 18 18 19 21 20 17 16 15 14 14 13 14 16 20 23 27 28 26 24 22 18 14 12 11 11 12 13 13 12 11 11 11 11 12 13 13 13 12 11 11 10 10 10 10 10 11 11 11 9 6 4 3 4 5 7 7 7 7 7 7 7 7 9 11
8 2 4 8 11 12 13 15 15 15 18 19 18 19 22 23 22 23 23 23 23 25 25 23 21 18 16 16 14 13 14 13 13 16 18 21 24 23 20 21 20 17 14 12 13 15 16 15 12 11 10 10 10 12 13 14 14 13 12 11 10 10 10 10 10 10 10 10 7 5 4 3 3 4 5 7 7 6 6 6 6 6 8 9 11
8 5 3 8 11 12 12 14 15 18 22 25 26 29 32 33 32 32 31 30 29 29 29 25 21 17 15 14 10 7 8 8 10 13 17 19 19 18 18 19 18 15 14 14 16 18 16 13 11 10 9 10 13 15 15 14 14 13 12 11 10 10 10 10 10 9 9 6 5 5 4 3 4 5 6 6 6 5 6 7 7 8 9 10 11
7 4 3 8 12 14 15 16 17 21 26 29 31 33 34 35 36 35 35 34 31 29 27 23 19 18 17 13 9 5 2 4 10 15 16 14 15 17 17 16 14 14 14 14 15 15 13 11 9 9 11 13 14 13 12 12 13 12 11 10 10 9 9 9 9 9 6 5 7 6 4 3 4 6 6 6 7 8 8 9 9 10 11 12 13
4 3 7 11 15 18 19 19 20 24 29 31 32 32 33 33 34 34 34 33 30 28 26 22 19 20 18 14 11 11 10 12 17 19 15 13 14 15 14 14 14 15 14 13 12 11 10 9 8 10 11 12 11 9 7 8 11 11 10 9 9 8 8 8 8 6 4 6 7 5 3 4 5 6 5 6 9 10 11 12 12 12 12 13 14
3 8 11 13 17 20 22 22 23 26 30 32 32 32 32 31 29 27 27 28 27 25 24 21 19 19 20 19 20 22 22 22 23 20 16 16 15 13 12 13 13 13 13 13 11 10 8 8 9 9 9 9 9 7 6 7 9 10 9 9 8 7 7 6 5 3 3 5 5 4 4 4 4 4 5 7 9 11 12 12 14 14 14 14 14
Wind_Direction
197 193 193 195 196 194 193 194 196 197 197 197 199 200 202 203 205 207 210 211 210 211 214 216 216 214 215 218 219 216 215 217 221 230 243 246 239 239 242 236 237 241 233 216 201 183 172 183 232 281 282 282 283 281 283 283 285 289 290 293 294 294 296 295 297 302 302 304 314 324 330 344 1 16 16 2 3 10 14 13 13 13 15 20 24
190 190 192 194 194 193 192 193 193 195 196 197 199 200 202 204 205 207 209 210 211 212 213 214 215 215 217 220 223 224 223 224 227 236 247 249 249 250 237 215 219 216 197 186 181 172 173 195 260 279 275 286 296 292 288 286 286 287 288 291 293 293 296 299 298 294 291 297 316 326 330 346 10 41 7 2 17 24 17 13 12 13 14 16 18
187 191 191 192 192 190 191 192 194 196 197 198 199 200 202 204 206 207 209 211 213 215 215 216 219 222 224 227 229 229 230 231 232 233 235 235 234 228 205 185 186 184 177 179 179 176 191 225 249 252 259 278 283 287 293 296 297 293 288 288 292 295 295 299 301 289 279 289 316 328 323 341 4 27 355 358 17 20 14 11 11 16 16 15 15
189 192 190 189 189 189 191 194 194 195 197 198 199 200 201 204 206 208 211 214 215 217 218 220 223 224 226 230 232 232 232 231 228 221 214 206 203 203 196 185 180 177 175 177 180 185 205 224 226 224 242 266 262 263 276 291 304 304 298 291 291 288 285 297 312 303 281 274 303 337 304 326 327 346 344 347 10 25 20 9 10 13 14 17 19
187 189 189 188 189 190 193 194 194 195 196 198 199 201 203 206 208 210 213 216 217 218 219 220 221 220 220 222 225 225 220 218 213 202 194 181 181 188 187 183 180 176 176 178 176 178 190 196 200 203 211 238 248 258 275 291 310 309 305 304 290 274 276 294 315 328 319 274 248 234 312 322 287 338 341 331 1 24 15 4 8 9 9 14 15
188 188 188 188 190 191 193 195 194 196 199 201 202 204 206 208 210 211 214 217 218 218 218 218 218 218 216 215 213 210 208 212 209 200 196 190 184 182 175 174 175 174 175 173 169 171 175 175 176 180 189 207 228 249 255 250 266 281 286 294 301 283 288 301 311 328 341 314 270 259 312 294 267 329 346 307 340 4 3 0 4 4 7 12 11
191 188 186 186 189 190 192 195 195 198 201 202 203 205 208 211 211 212 215 217 218 218 218 218 218 218 218 219 218 216 213 211 209 206 204 194 183 180 175 170 170 172 172 168 168 172 170 169 174 179 190 205 208 214 217 222 237 251 278 293 304 317 310 312 321 327 335 11 13 353 19 32 240 288 21 292 325 335 343 353 359 1 7 12 10
188 188 188 186 189 190 192 195 197 200 200 200 202 205 208 212 213 214 216 217 218 219 218 218 218 218 218 219 220 221 218 210 204 198 192 185 178 178 176 170 170 174 175 170 169 173 173 172 176 183 195 197 189 191 204 212 219 230 270 312 322 342 336 329 335 338 347 29 44 57 63 64 122 141 84 27 307 307 329 345 351 354 4 14 11
189 188 189 188 189 192 193 194 197 199 198 199 201 204 207 211 214 216 217 218 219 219 218 218 219 219 219 217 215 216 215 207 197 186 181 179 177 176 175 173 174 175 177 176 174 177 179 175 174 193 203 189 182 186 197 199 197 223 342 9 9 6 9 3 358 5 35 44 52 63 61 61 111 134 85 44 285 285 318 333 340 347 356 5 9
193 192 191 191 191 191 191 192 195 197 197 199 202 203 207 210 213 216 218 219 220 219 218 218 218 220 218 213 210 206 200 194 187 182 181 180 179 179 179 178 176 174 174 178 181 181 179 178 180 190 176 164 162 160 153 135 82 42 28 31 32 17 12 16 5 11 49 54 48 51 53 62 100 137 111 61 181 248 279 297 319 335 335 341 356
193 194 195 195 193 190 189 190 193 194 196 199 201 203 206 209 212 215 218 219 219 218 218 219 220 220 217 213 209 200 189 184 182 183 184 183 184 184 183 181 176 173 171 175 184 183 178 182 193 184 161 151 146 139 122 89 58 41 26 14 9 4 357 357 354 354 35 55 41 35 42 55 78 158 205 195 188 206 234 278 300 319 307 312 340
191 193 195 192 191 190 189 191 193 192 194 197 200 203 205 208 210 214 217 218 218 218 218 221 220 217 216 215 210 200 191 188 187 188 187 187 190 188 183 182 179 176 174 180 188 185 184 194 217 227 177 163 174 149 95 55 32 5 350 343 339 340 339 343 348 339 301 304 360 343 341 357 339 145 181 198 197 212 223 253 284 317 309 304 330
191 193 193 190 188 190 191 193 192 191 193 196 199 202 204 207 209 211 215 215 216 217 217 218 216 214 216 214 206 200 198 197 195 193 191 194 198 195 189 185 184 184 184 193 199 192 196 214 244 253 229 237 270 264 336 341 339 329 324 321 321 323 320 321 329 325 295 267 282 289 278 280 261 224 226 232 265 287 265 255 279 300 283 295 320
192 192 192 192 192 192 192 192 192 192 193 196 198 200 202 205 207 210 213 214 214 215 215 215 214 215 215 210 204 201 202 201 201 200 199 201 203 202 198 191 191 198 202 205 204 197 202 224 256 265 260 288 301 296 304 315 315 312 315 316 317 318 314 309 305 305 295 274 275 284 279 276 263 250 258 258 267 280 267 235 258 291 276 276 301
192 193 193 194 194 193 192 193 194 194 194 196 198 199 201 203 205 208 210 211 212 212 213 213 213 212 210 206 204 204 206 206 207 209 211 211 209 207 205 202 203 211 213 208 202 201 213 239 260 264 262 282 296 297 300 302 301 301 304 307 308 308 304 298 293 290 288 280 278 282 281 278 268 258 261 260 262 272 271 252 228 271 294 278 284
192 195 196 195 194 194 194 195 197 197 196 196 197 198 200 202 205 208 209 209 210 210 210 211 210 208 205 203 205 206 208 209 209 213 217 216 211 207 206 206 209 211 209 206 204 210 226 240 247 248 250 265 278 283 286 286 288 290 295 299 303 306 300 294 290 283 280 280 277 275 275 274 269 259 256 255 258 263 260 258 247 218 233 298 302
193 196 195 193 192 193 195 197 198 199 198 198 200 200 201 202 203 206 208 208 208 208 208 208 206 204 203 203 205 207 208 208 210 212 213 212 209 206 206 207 211 213 211 211 213 219 226 228 231 236 240 247 259 269 272 275 279 280 284 292 302 311 307 297 290 281 276 275 271 268 269 269 265 257 253 250 250 254 251 254 263 248 227 228 278
194 196 194 192 191 193 197 198 199 199 200 201 202 202 203 203 204 205 205 205 206 207 207 206 203 202 203 204 206 208 208 209 211 210 208 208 207 204 205 208 212 215 215 216 216 215 215 217 223 232 234 238 252 262 265 269 272 272 277 285 291 298 299 295 291 283 280 277 268 264 266 266 259 250 250 248 245 248 250 252 258 258 255 240 225
194 194 194 193 193 196 197 200 202 202 203 204 204 204 204 205 206 206 205 205 205 205 203 202 203 204 205 206 208 208 207 207 209 209 208 209 207 204 205 208 209 213 215 213 210 208 209 216 225 231 232 240 251 257 261 267 269 270 275 280 283 284 285 287 289 287 285 281 272 265 265 262 256 252 252 247 243 246 248 250 253 251 257 257 241
194 193 196 195 195 198 199 201 202 202 205 206 205 205 205 206 207 207 207 207 206 203 200 199 202 204 204 206 208 207 206 206 208 209 212 213 211 210 210 207 204 209 211 209 210 213 215 220 228 232 237 249 256 256 257 260 264 269 273 276 276 276 279 284 288 288 285 282 276 269 267 262 255 255 256 248 243 247 250 253 256 255 256 257 249
194 194 197 197 196 199 201 204 204 204 205 206 205 206 207 207 207 206 206 206 205 203 200 200 200 200 202 204 206 206 205 206 207 211 215 217 217 216 215 208 202 205 208 212 217 220 222 226 230 238 249 257 258 256 257 263 269 273 274 275 277 280 284 287 287 285 283 282 279 272 270 267 257 252 254 252 248 247 249 253 256 256 256 254 249
196 198 198 195 195 199 202 204 205 205 206 206 207 208 208 208 207 207 206 205 205 203 201 201 199 198 201 203 203 204 204 205 207 210 214 218 219 219 218 213 207 208 213 219 223 224 228 234 238 246 252 252 253 257 263 270 273 276 278 282 286 288 291 291 287 285 285 285 282 275 272 270 262 256 258 258 255 251 250 254 256 255 256 257 253
197 199 198 193 197 201 201 202 203 205 206 206 207 207 208 208 207 205 205 206 206 203 201 201 199 198 200 201 203 202 202 204 206 208 212 217 219 220 221 219 214 214 219 222 226 230 235 240 240 242 243 244 253 259 263 268 271 277 283 285 288 288 289 291 289 290 291 290 286 279 275 272 266 262 264 264 260 257 256 257 258 256 255 258 258
200 201 200 195 198 200 200 202 204 205 206 205 206 208 208 209 207 206 207 207 206 203 201 199 198 198 198 199 201 201 201 204 207 209 211 216 220 220 223 223 220 220 221 221 227 234 239 241 238 236 238 245 253 256 260 266 270 277 281 280 282 285 287 291 292 293 293 292 288 283 281 279 271 266 269 270 264 260 260 260 260 258 254 256 259
202 206 205 197 195 196 199 204 205 205 207 206 206 208 208 207 206 206 207 207 204 202 201 199 198 196 195 196 197 198 200 204 208 210 210 213 219 220 221 223 223 224 224 224 230 236 240 243 241 239 241 244 251 256 262 267 269 271 272 274 281 287 290 292 292 290 288 287 284 283 284 284 278 273 274 274 270 265 264 263 263 262 259 258 260
203 207 207 199 195 199 202 204 205 207 208 206 206 208 208 208 207 207 207 205 203 201 200 198 197 196 194 194 194 196 200 204 210 212 211 212 216 218 221 224 226 227 226 227 233 239 244 247 246 243 242 244 250 259 265 266 266 268 272 277 284 289 292 292 288 284 283 283 282 281 282 283 280 278 278 278 276 272 268 268 268 269 267 264 263
204 208 208 202 197 202 204 205 208 209 208 208 208 208 207 207 207 207 206 204 202 200 199 198 198 196 194 192 192 197 202 204 209 213 212 211 214 217 220 224 227 227 228 231 236 243 247 248 245 243 245 249 253 259 266 265 264 271 278 281 284 287 289 289 287 284 281 279 279 278 278 279 278 278 280 281 279 275 272 271 272 274 273 267 265
207 211 210 204 202 204 205 208 211 211 211 212 212 211 209 208 208 206 205 203 201 200 199 199 199 196 193 192 194 198 202 203 208 213 213 211 212 216 219 222 225 228 230 233 238 243 244 242 241 240 244 249 253 258 262 260 261 269 274 276 278 279 282 285 285 284 281 277 276 276 275 276 278 280 284 285 283 278 274 273 275 277 275 270 267
210 213 211 205 207 208 205 208 210 209 211 212 212 213 212 211 211 208 205 204 202 200 200 200 199 196 194 193 194 197 200 202 207 212 213 211 212 215 218 221 224 228 231 234 238 239 238 237 237 237 241 248 254 258 259 257 259 265 267 269 271 273 276 280 281 279 280 280 282 284 284 283 281 282 285 288 287 283 277 274 277 280 277 273 269
208 211 209 207 210 210 207 208 209 211 211 210 210 212 211 211 211 209 208 206 203 202 203 202 200 198 195 193 193 194 197 201 206 212 213 212 213 216 220 224 228 232 234 237 240 238 235 237 238 238 244 251 255 258 259 259 259 262 265 266 268 273 277 279 280 280 281 284 291 296 296 294 289 283 283 286 287 285 280 276 278 279 277 273 268
208 207 207 210 211 211 211 211 212 214 213 211 212 212 211 212 211 210 210 207 204 204 205 204 201 197 193 192 191 193 196 200 205 210 211 212 214 217 222 227 231 234 236 238 240 238 236 239 242 245 249 252 254 257 260 261 259 258 264 267 270 277 281 280 281 281 281 287 295 299 299 297 292 286 283 285 288 288 286 283 282 280 276 272 267
202 200 197 203 206 208 211 213 215 216 215 215 215 214 213 213 212 213 213 210 208 208 208 206 200 196 194 191 188 189 192 195 203 212 215 215 216 219 224 228 231 233 236 237 237 236 237 241 244 247 251 252 254 257 260 262 261 258 260 265 270 276 279 280 283 281 281 289 298 299 297 293 292 291 289 289 289 288 290 290 287 282 274 269 267
191 190 190 195 202 205 210 214 216 215 216 218 217 216 216 214 213 216 216 213 213 212 209 204 197 193 189 181 178 181 181 184 203 221 226 222 219 221 226 229 231 232 234 235 234 235 238 242 244 247 250 253 255 259 261 261 261 259 257 260 268 274 276 280 285 282 282 292 298 295 291 288 289 291 289 287 286 285 287 288 286 281 275 272 273
181 185 191 194 196 202 210 215 219 220 221 221 220 221 221 216 217 221 220 217 217 214 208 199 187 180 174 169 172 180 184 189 203 221 232 227 221 224 227 229 230 232 233 234 233 236 240 243 244 247 250 254 257 261 263 264 263 261 256 258 265 270 273 279 282 279 282 291 292 287 286 287 288 289 287 285 285 284 284 284 281 279 278 280 284
179 188 197 200 196 199 206 213 220 223 221 218 219 221 219 215 221 226 224 220 217 209 200 190 181 175 172 174 179 184 187 192 202 222 239 235 226 226 228 230 231 232 234 235 235 238 242 243 246 249 252 256 261 265 267 267 267 264 257 258 263 265 269 275 275 274 279 285 283 279 283 289 291 292 291 289 287 285 282 280 279 280 285 290 291
180 185 194 196 196 199 203 210 217 218 214 215 219 217 211 213 220 223 221 217 209 198 192 186 180 178 178 180 180 180 183 192 206 224 242 242 233 230 230 230 231 233 235 237 238 240 241 243 246 249 252 256 262 269 273 272 271 266 259 257 260 260 266 269 267 269 276 279 277 277 285 293 294 295 295 293 288 283 279 280 283 289 294 294 293
179 186 193 194 197 201 203 208 211 210 211 216 217 210 206 210 216 215 212 205 195 190 188 184 183 183 181 179 173 168 175 190 208 224 238 241 237 236 233 230 230 232 232 234 237 238 240 243 246 249 257 266 270 275 280 277 273 266 255 253 256 259 264 265 263 268 273 273 275 283 292 295 294 295 292 286 281 279 281 287 291 295 295 294 296
177 185 190 190 193 195 199 201 199 204 211 212 209 205 204 207 211 209 201 189 183 186 187 187 187 180 171 168 166 168 174 179 193 216 233 238 237 237 234 230 229 230 231 234 236 235 235 236 236 236 251 269 275 277 278 275 269 259 249 249 255 260 262 261 261 266 270 273 281 292 295 293 290 289 282 274 276 283 289 294 296 297 298 297 301
183 183 179 179 181 181 184 188 189 198 206 204 202 201 199 205 210 203 186 174 180 189 191 187 176 162 160 166 166 170 175 176 191 217 232 237 237 237 236 234 232 230 231 233 231 225 221 221 223 237 259 272 277 275 269 260 256 249 244 249 257 259 257 256 260 266 271 279 291 295 292 287 284 281 274 273 283 291 296 300 301 302 301 298 300
55 121 150 158 161 158 161 177 192 200 202 200 198 195 196 204 206 197 184 182 189 193 188 173 158 156 164 166 158 163 176 185 205 225 233 235 238 243 246 246 242 235 230 227 217 204 205 219 243 263 268 271 270 264 255 251 252 246 245 252 256 255 255 259 264 270 276 287 297 298 291 282 277 275 275 282 291 297 302 305 303 301 300 299 302
82 90 118 137 151 164 176 190 200 201 198 197 194 191 196 204 202 193 185 188 191 187 175 163 157 156 160 159 156 165 182 198 215 228 233 236 240 243 244 245 242 233 219 202 183 175 189 256 286 272 258 253 254 254 252 253 253 248 249 253 254 254 259 264 268 274 283 292 300 301 295 283 274 275 282 290 297 303 307 307 303 302 301 301 304
106 109 119 138 167 192 197 201 202 198 195 194 190 191 197 196 176 135 139 172 179 172 160 153 151 153 159 163 168 182 200 211 222 234 242 244 244 243 240 231 222 211 195 183 183 192 209 246 265 259 250 245 246 251 252 251 251 251 253 255 255 256 261 264 269 278 289 295 299 299 295 287 282 284 289 294 299 303 305 305 303 302 302 301 302
103 122 154 172 187 204 208 192 193 188 186 188 187 187 178 133 101 98 129 153 157 152 143 141 149 160 168 172 180 206 226 228 238 255 253 238 232 232 223 207 198 198 197 199 205 209 217 230 235 237 240 239 238 242 246 251 255 258 257 257 256 256 259 265 274 286 295 297 297 294 290 289 289 289 287 288 295 299 300 303 305 304 304 303 304
44 118 179 177 146 110 79 76 106 144 159 174 172 137 103 96 97 110 132 144 149 153 154 158 164 169 174 180 197 239 266 249 233 237 234 231 230 223 213 207 205 202 200 202 211 218 225 226 220 217 218 218 226 238 249 256 260 259 257 255 253 255 261 269 281 292 296 298 297 292 289 289 286 277 278 291 301 303 303 306 308 308 308 311 316
347 108 133 112 101 109 111 106 107 114 118 128 136 121 107 105 114 131 140 144 148 151 157 169 177 180 187 198 212 238 263 254 232 232 245 244 232 216 203 197 194 192 193 202 215 219 214 202 194 194 201 212 229 244 253 258 257 254 251 249 250 256 265 275 286 292 294 295 295 293 291 285 266 261 286 309 315 311 309 309 308 311 317 325 334
336 111 124 117 112 117 115 105 101 106 111 117 128 129 118 114 123 138 142 141 138 135 141 157 168 175 190 204 210 222 234 235 235 242 242 229 211 198 189 184 185 190 202 211 207 195 187 186 190 197 206 218 236 249 252 251 248 244 243 244 250 260 269 278 286 288 289 291 292 288 278 248 234 265 305 320 319 315 313 311 311 319 331 342 349
351 6 144 135 121 116 115 111 109 111 112 113 116 115 113 113 118 127 131 128 123 119 120 128 140 153 172 183 188 204 215 215 227 236 227 208 198 193 187 184 189 197 199 193 185 183 185 190 198 205 212 225 241 247 244 240 237 235 236 241 252 261 269 277 280 281 285 288 277 250 226 222 250 293 315 321 323 326 329 330 334 342 348 354 357
3 20 106 119 111 112 118 118 116 115 114 114 115 115 114 114 113 116 117 117 119 119 118 123 132 138 145 149 153 178 201 200 208 210 200 193 196 200 198 195 197 201 196 188 185 187 192 199 206 210 217 228 237 242 242 238 233 231 233 243 254 261 267 273 276 279 283 273 230 201 205 237 273 298 314 323 335 351 358 358 359 359 358 359 360
336 21 102 126 124 129 131 127 125 124 120 119 118 118 118 117 118 119 117 114 119 127 129 130 130 126 120 112 99 92 120 201 203 197 196 201 205 204 204 202 199 198 198 196 194 196 202 210 216 221 225 227 234 248 256 246 232 228 235 246 253 258 264 272 282 289 280 232 200 197 217 255 288 308 321 338 355 5 8 10 9 6 2 1 3
283 149 154 151 145 142 138 133 132 130 126 124 125 124 122 120 121 123 121 120 123 129 132 136 140 141 144 150 156 160 180 211 213 207 209 213 204 197 196 194 190 189 190 192 196 201 207 214 221 227 231 233 243 262 267 240 224 228 240 248 248 252 262 273 287 294 256 207 201 213 254 289 309 324 342 6 13 12 9 7 6 7 4 0 1
197 162 156 149 147 148 144 141 142 139 133 131 131 132 131 128 127 128 130 134 138 139 143 156 170 173 173 179 183 186 194 207 211 211 209 201 187 178 179 182 182 182 184 189 196 201 208 217 223 226 231 236 243 250 245 225 223 233 242 241 237 244 261 275 287 283 215 204 218 248 285 309 327 349 12 18 16 13 10 4 359 360 0 357 356